, AK

(GMT )
Denali Park

Weather History for PAIN - January, 2014

Change the Weather History Date:

Thursday, January 9, 2014

  Actual Average Record
Temperature  
Mean Temperature 3 °F -  
Max Temperature 6 °F 9 °F 44 °F (1985)
Min Temperature 0 °F -6 °F -45 °F (2009)
Degree Days  
Heating Degree Days 62    
Moisture  
Dew Point 2 °F    
Average Humidity 88    
Maximum Humidity 92    
Minimum Humidity 85    
Precipitation  
Precipitation 0.00 in - - ()
Sea Level Pressure  
Sea Level Pressure 29.26 in    
Wind  
Wind Speed 7 mph (North)    
Max Wind Speed 13 mph    
Max Gust Speed 20 mph    
Visibility 6 miles    
Events      
Averages and records for this station are not official NWS values.
T = Trace of Precipitation, MM = Missing Value Source: NWS Daily Summary

Daily Weather History Graph

Daily Weather History Graph

Search for Another Location

Airport or City:

Trip Planner

Search our weather history database for the weather conditions in past years. The results will help you decide how hot, cold, wet, or windy it might be!

Date:

Astronomy

Jan. 09, 2014 Rise Set
Actual Time 10:29 AM AKST 3:36 PM AKST
Civil Twilight 9:20 AM AKST 4:45 PM AKST
Nautical Twilight 8:15 AM AKST 5:50 PM AKST
Astronomical Twilight 7:18 AM AKST 6:48 PM AKST
Moon 12:04 PM AKST (1/9) 3:46 AM AKST (1/9)
Length of Visible Light 7h 25m
Length of Day
5h 07m
Waxing Gibbous, 67% of the Moon is Illuminated
Jan 9
Waxing Gibbous
Jan 15
Full
Jan 23
Last Quarter
Jan 30
New
Feb 6
First Quarter

Hourly Weather History & Observations

Time (AKST) Temp. Windchill Dew Point Humidity Pressure Visibility Wind Dir Wind Speed Gust Speed Precip Events Conditions
12:16 AM 6.8 °F -7.8 °F 5.0 °F 92% 29.19 in 3.0 mi North 10.4 mph - N/A   Overcast
12:36 AM 6.8 °F -5.9 °F 5.0 °F 92% 29.19 in 3.0 mi North 8.1 mph - N/A   Overcast
12:56 AM 6.8 °F -7.8 °F 5.0 °F 92% 29.19 in 3.0 mi North 10.4 mph - N/A   Overcast
1:16 AM 6.8 °F -8.6 °F 3.2 °F 85% 29.19 in 4.0 mi North 11.5 mph 19.6 mph N/A   Overcast
1:36 AM 6.8 °F -8.6 °F 3.2 °F 85% 29.19 in 4.0 mi North 11.5 mph 17.3 mph N/A   Overcast
1:56 AM 6.8 °F -6.9 °F 3.2 °F 85% 29.19 in 4.0 mi North 9.2 mph - N/A   Overcast
2:16 AM 6.8 °F -6.9 °F 3.2 °F 85% 29.19 in 5.0 mi North 9.2 mph - N/A   Overcast
2:36 AM 6.8 °F -6.9 °F 3.2 °F 85% 29.19 in 6.0 mi North 9.2 mph - N/A   Overcast
2:56 AM 6.8 °F -7.8 °F 3.2 °F 85% 29.19 in 5.0 mi North 10.4 mph - N/A   Overcast
3:16 AM 6.8 °F -6.9 °F 3.2 °F 85% 29.19 in 5.0 mi North 9.2 mph - N/A   Overcast
3:36 AM 6.8 °F -6.9 °F 3.2 °F 85% 29.19 in 9.0 mi North 9.2 mph 16.1 mph N/A   Overcast
3:56 AM 6.8 °F -5.9 °F 3.2 °F 85% 29.19 in 6.0 mi North 8.1 mph 17.3 mph N/A   Overcast
4:16 AM 6.8 °F -7.8 °F 3.2 °F 85% 29.19 in 9.0 mi North 10.4 mph 16.1 mph N/A   Overcast
4:36 AM 6.8 °F -7.8 °F 3.2 °F 85% 29.19 in 8.0 mi North 10.4 mph 18.4 mph N/A   Overcast
4:56 AM 6.8 °F -6.9 °F 3.2 °F 85% 29.19 in 9.0 mi North 9.2 mph 17.3 mph N/A   Overcast
5:16 AM 6.8 °F -5.9 °F 3.2 °F 85% 29.19 in 9.0 mi North 8.1 mph - N/A   Overcast
5:36 AM 6.8 °F -6.9 °F 3.2 °F 85% 29.19 in 10.0 mi North 9.2 mph - N/A   Overcast
5:56 AM 6.8 °F -9.3 °F 3.2 °F 85% 29.19 in 9.0 mi North 12.7 mph 17.3 mph N/A   Overcast
6:16 AM 6.8 °F -5.9 °F 3.2 °F 85% 29.19 in 9.0 mi North 8.1 mph - N/A   Overcast
6:36 AM 6.8 °F -7.8 °F 3.2 °F 85% 29.19 in 8.0 mi North 10.4 mph - N/A   Overcast
6:56 AM 6.8 °F -3.5 °F 3.2 °F 85% 29.19 in 7.0 mi North 5.8 mph - N/A   Overcast
7:16 AM 6.8 °F -5.9 °F 3.2 °F 85% 29.20 in 9.0 mi North 8.1 mph 16.1 mph N/A   Overcast
7:36 AM 6.8 °F -4.8 °F 3.2 °F 85% 29.20 in 10.0 mi North 6.9 mph - N/A   Overcast
7:56 AM 6.8 °F -5.9 °F 3.2 °F 85% 29.20 in 10.0 mi North 8.1 mph - N/A   Overcast
8:16 AM 6.8 °F -2.0 °F 3.2 °F 85% 29.20 in 10.0 mi North 4.6 mph - N/A   Overcast
8:36 AM 6.8 °F -5.9 °F 3.2 °F 85% 29.21 in 10.0 mi North 8.1 mph - N/A   Overcast
8:56 AM 6.8 °F -5.9 °F 3.2 °F 85% 29.21 in 10.0 mi North 8.1 mph - N/A   Overcast
9:16 AM 6.8 °F -3.5 °F 3.2 °F 85% 29.22 in 10.0 mi North 5.8 mph - N/A   Overcast
9:36 AM 6.8 °F -4.8 °F 3.2 °F 85% 29.23 in 7.0 mi North 6.9 mph - N/A   Overcast
9:56 AM 5.0 °F -6.9 °F 3.2 °F 92% 29.23 in 5.0 mi North 6.9 mph - N/A   Overcast
10:16 AM 5.0 °F -6.9 °F 3.2 °F 92% 29.23 in 6.0 mi North 6.9 mph - N/A   Overcast
10:36 AM 5.0 °F -5.6 °F 3.2 °F 92% 29.24 in 7.0 mi North 5.8 mph - N/A   Overcast
10:56 AM 5.0 °F -6.9 °F 3.2 °F 92% 29.24 in 5.0 mi North 6.9 mph - N/A   Overcast
11:36 AM 6.8 °F -3.5 °F 3.2 °F 85% 29.25 in 5.0 mi North 5.8 mph - N/A   Overcast
11:56 AM 6.8 °F -3.5 °F 3.2 °F 85% 29.26 in 4.0 mi North 5.8 mph - N/A   Overcast
12:16 PM 5.0 °F -4.1 °F 3.2 °F 92% 29.26 in 4.0 mi North 4.6 mph - N/A   Overcast
12:36 PM 5.0 °F -4.1 °F 3.2 °F 92% 29.27 in 3.0 mi North 4.6 mph - N/A   Overcast
12:56 PM 6.8 °F -2.0 °F 3.2 °F 85% 29.27 in 2.5 mi North 4.6 mph - N/A   Overcast
1:16 PM 6.8 °F -0.1 °F 3.2 °F 85% 29.27 in 5.0 mi North 3.5 mph - N/A   Overcast
2:16 PM 5.0 °F -4.1 °F 1.4 °F 85% 29.28 in 5.0 mi North 4.6 mph - N/A   Overcast
2:36 PM 5.0 °F -4.1 °F 1.4 °F 85% 29.28 in 3.0 mi North 4.6 mph - N/A   Overcast
2:56 PM 5.0 °F - 1.4 °F 85% 29.29 in 2.5 mi Calm Calm - N/A   Overcast
3:16 PM 5.0 °F -2.1 °F 1.4 °F 85% 29.29 in 9.0 mi NNE 3.5 mph - N/A   Overcast
3:36 PM 5.0 °F - 1.4 °F 85% 29.29 in 7.0 mi Calm Calm - N/A   Mostly Cloudy
3:56 PM 3.2 °F - 1.4 °F 92% 29.30 in 10.0 mi Calm Calm - N/A   Overcast
4:16 PM 3.2 °F - 1.4 °F 92% 29.30 in 2.5 mi Calm Calm - N/A   Overcast
4:36 PM 3.2 °F - 1.4 °F 92% 29.30 in 5.0 mi Calm Calm - N/A   Overcast
4:56 PM 3.2 °F - 1.4 °F 92% 29.30 in 2.5 mi Calm Calm - N/A   Overcast
5:16 PM 5.0 °F - 1.4 °F 85% 29.30 in 3.0 mi Calm Calm - N/A   Overcast
5:36 PM 3.2 °F - 1.4 °F 92% 29.30 in 3.0 mi Calm Calm - N/A   Overcast
5:56 PM 3.2 °F - 1.4 °F 92% 29.31 in 4.0 mi Calm Calm - N/A   Overcast
6:16 PM 3.2 °F - 1.4 °F 92% 29.31 in 5.0 mi Calm Calm - N/A   Overcast
6:36 PM 3.2 °F - 1.4 °F 92% 29.31 in 5.0 mi Calm Calm - N/A   Overcast
6:56 PM 3.2 °F - -0.4 °F 85% 29.31 in 9.0 mi Calm Calm - N/A   Overcast
7:16 PM 1.4 °F - -0.4 °F 92% 29.32 in 10.0 mi Calm Calm - N/A   Overcast
7:36 PM 1.4 °F - -0.4 °F 92% 29.32 in 10.0 mi Calm Calm - N/A   Overcast
7:56 PM 1.4 °F - -2.2 °F 85% 29.32 in 10.0 mi Calm Calm - N/A   Partly Cloudy
8:16 PM -0.4 °F - -2.2 °F 92% 29.33 in 10.0 mi Calm Calm - N/A   Clear
8:36 PM -0.4 °F -10.4 °F -2.2 °F 92% 29.33 in 7.0 mi North 4.6 mph - N/A   Mostly Cloudy
8:56 PM 1.4 °F - -0.4 °F 92% 29.34 in 3.0 mi Calm Calm - N/A   Overcast
9:16 PM -0.4 °F - -2.2 °F 92% 29.34 in 9.0 mi Calm Calm - N/A   Overcast
9:36 PM -0.4 °F - -2.2 °F 92% 29.35 in 9.0 mi Calm Calm - N/A   Overcast
9:56 PM -0.4 °F - -2.2 °F 92% 29.35 in 8.0 mi Calm Calm - N/A   Overcast
10:16 PM -0.4 °F - -2.2 °F 92% 29.36 in 9.0 mi Calm Calm - N/A   Overcast
10:36 PM -0.4 °F - -2.2 °F 92% 29.36 in 6.0 mi Calm Calm - N/A   Overcast
10:56 PM -0.4 °F - -2.2 °F 92% 29.36 in 4.0 mi Calm Calm - N/A   Overcast
11:16 PM -0.4 °F - -2.2 °F 92% 29.37 in 10.0 mi Calm Calm - N/A   Mostly Cloudy
11:36 PM -0.4 °F - -2.2 °F 92% 29.38 in 7.0 mi Calm Calm - N/A   Overcast
11:56 PM -0.4 °F - -2.2 °F 92% 29.38 in 6.0 mi Calm Calm - N/A   Overcast